Weather in Arkhangelskoye

Russia / Penza Oblast     53°10′42″N   45°51′24″E
temp.,
°C
wind,
m/s
gust,
m/s
humid.,
%
clouds,
%
prec.,
mm/h
press.,
hPa
HPBL,
m
28 february, sun
sun2800:00−15nnw51192100 0.0 1009558
03:00−16nnw5119398 0.0 1011418
06:00−18nw499676 0.0 1012248
09:00−16nw489264 0.0 1013334
12:00−13nw478853 0.0 1013507
15:00−12nw478876 0.0 1014520
18:00−16nnw369598 0.0 1016158
21:00−17nnw349499 0.0 101990
1 march, mon
mon100:00−19nnw239543 0.0 102038
03:00−19nnw239721 0.0 102242
06:00−19nw23970 0.0 102336
09:00−15nw24940 0.0 1025159
12:00−11wnw348768 0.0 1024368
15:00−9wnw359172 0.0 1024359
18:00−13w349891 0.0 102388
21:00−13wsw369893 0.1 1022128
2 march, tue
tue200:00−10wsw51096100 0.1 1019339
03:00−6sw61394100 0.3 1015510
06:00−4wsw71495100 1.3 1010633
09:00−3wsw71396100 2.9 1007695
12:000wsw71299100 2.6 1004811
15:000wnw61098100 4.0 1002668
18:00−3wnw499498 0.7 1003248
21:00−4wnw5119493 0.9 1004393
3 march, wed
wed300:00−4wnw4109687 0.2 1004387
03:00−4nw5109591 0.6 1005428
06:00−6wnw4109588 0.3 1005386
09:00−4nw6109391 0.4 1007548
12:00−3nw699199 0.2 1008771
15:00−4nw6109199 0.4 1009811
18:00−6nw5129499 0.3 1011585
21:00−7nnw5129396 0.6 1014603
4 march, thu
thu400:00−8nw499594 0.1 1015347
03:00−11wnw379793 0.2 1017169
06:00−13w369791 0.0 1017122
09:00−8w599692 0.1 1017313
12:00−3wsw61190100 0.0 1014680
15:00−2wsw8139099 0.1 1012773
18:00−4wsw71590100 0.0 1011639
21:00−4wsw7178997 0.0 1010636